Wind_Speed
30 33 34 33 30 29 26 23 27 21 22 23 25 26 25 33 33 33 20 14 8 6 7 7 11 14 16 10 11 7 6 6 8 7 8 7 7 8 6 8 8 9 8 8
32 30 26 26 27 25 27 29 31 27 23 27 29 30 30 32 29 32 30 31 7 8 10 9 8 14 13 10 8 10 4 7 7 6 9 12 9 8 9 8 7 10 10 9
30 29 30 31 19 25 35 33 31 32 27 28 27 27 30 32 31 32 28 29 22 9 11 11 13 14 11 11 6 7 3 1 0 5 9 11 13 12 11 10 9 9 10 9
32 33 38 31 29 32 34 33 32 35 35 35 36 34 28 31 31 29 30 20 18 17 13 16 14 19 17 10 11 7 5 6 4 7 10 11 11 11 11 12 11 11 11 10
36 36 37 32 33 39 38 38 36 37 37 39 39 35 32 21 21 23 14 12 18 16 18 16 19 24 24 17 11 9 11 13 13 13 12 12 12 12 13 12 11 10 7 6
37 36 35 27 31 38 41 38 35 35 37 42 39 39 14 11 22 16 12 13 17 14 14 18 20 30 27 27 3 8 12 15 16 16 15 21 16 15 13 10 8 7 5 8
40 40 37 30 37 36 36 37 35 35 35 36 37 24 11 4 2 6 5 10 13 13 12 15 19 25 20 8 9 13 15 16 16 17 19 16 11 12 13 12 12 13 17 20
42 42 40 34 40 38 37 40 38 37 36 35 33 14 12 5 9 12 11 11 12 12 12 13 15 16 17 18 19 17 19 20 19 17 20 18 15 13 14 15 17 20 22 24
43 42 43 38 39 36 39 38 37 38 41 35 22 10 13 9 11 12 12 13 15 16 16 14 14 17 18 20 20 20 19 20 22 21 22 23 21 21 20 21 22 23 24 26
40 43 40 37 34 35 34 34 32 33 30 27 29 19 18 14 16 16 17 17 17 23 21 19 19 20 22 21 20 20 21 23 22 24 25 28 28 28 25 26 28 28 28 30
41 42 40 39 36 34 31 33 37 25 25 22 19 20 16 20 24 22 23 24 23 24 26 24 22 24 25 24 24 23 23 26 28 28 27 27 26 31 32 33 33 33 33 33
43 42 39 39 38 35 35 34 30 16 20 26 20 21 21 23 26 26 25 25 25 25 28 28 27 27 27 27 29 28 28 29 28 24 27 28 29 30 33 35 35 35 34 34
42 42 43 41 39 36 32 31 33 29 32 27 28 28 25 25 27 27 27 27 26 26 28 29 29 29 29 30 30 31 31 31 31 32 32 33 32 32 31 31 32 33 35 37
40 41 40 38 40 35 36 32 28 26 27 28 25 27 27 27 30 29 30 30 28 27 28 29 29 30 32 33 33 34 35 35 34 34 35 34 33 32 31 32 34 36 35 35
40 40 40 39 40 39 39 37 36 36 37 33 33 35 35 34 35 34 33 33 31 30 30 31 32 32 33 34 35 36 37 36 35 33 33 33 33 34 36 38 37 35 37 39
42 43 46 45 43 45 47 44 44 44 43 40 38 35 34 33 28 25 29 32 32 34 35 35 35 35 34 35 37 37 37 37 35 33 34 33 34 36 36 39 38 40 40 40
46 45 43 45 50 51 50 49 49 48 45 43 41 39 38 37 37 41 41 39 38 37 38 39 39 39 36 35 37 38 37 36 34 36 37 37 38 35 36 38 40 41 41 40
43 46 49 48 49 50 49 49 49 49 48 46 45 44 43 42 41 42 42 41 38 36 36 37 36 38 37 36 37 38 37 35 34 36 42 44 39 39 38 38 37 38 37 37
42 45 46 46 47 49 49 47 47 47 47 44 44 45 44 42 42 42 40 35 30 26 26 29 29 32 36 33 28 26 23 29 31 31 39 36 32 31 33 33 34 33 33 31
34 36 36 38 41 42 45 45 43 44 46 43 41 41 40 37 34 35 33 38 40 40 35 30 31 33 33 34 27 27 33 33 33 29 27 29 32 32 31 33 35 34 33 31
28 30 32 34 36 37 38 39 38 38 38 37 35 32 31 33 35 36 36 36 38 42 35 19 18 25 24 22 25 27 31 33 28 26 33 31 29 29 28 32 32 30 30 33
27 28 29 30 32 33 34 35 36 36 36 35 31 32 30 30 31 31 31 27 32 34 28 24 27 20 14 15 19 24 27 26 26 28 29 27 28 31 33 33 31 32 33 34
22 24 26 29 31 30 32 33 36 39 38 36 31 29 23 32 33 28 32 27 24 18 21 11 9 15 18 21 24 27 26 26 27 27 27 29 30 29 32 31 30 29 30 32
26 28 27 24 26 27 27 27 29 32 35 36 35 34 33 30 25 28 33 30 19 18 8 6 11 14 17 21 26 25 22 22 24 27 24 25 26 27 26 25 28 31 32 32
15 14 16 14 15 20 24 25 27 27 28 31 32 32 31 31 27 25 30 26 14 7 10 13 13 14 13 12 15 18 22 24 25 23 23 21 20 25 27 29 30 30 30 32
8 8 7 7 6 6 5 4 9 15 20 24 24 31 29 28 31 28 26 28 27 18 11 15 17 17 18 15 18 20 22 22 19 18 22 24 24 25 27 27 29 30 32 33
4 5 4 2 4 3 3 1 1 4 4 6 11 14 30 20 16 17 15 11 17 15 20 21 22 22 20 20 18 17 15 16 21 23 24 24 26 27 27 28 31 33 35 36
Wind_Direction
226 224 228 240 252 255 265 276 273 265 276 292 299 313 309 316 308 311 311 313 223 253 285 306 321 336 0 33 20 2 11 23 12 345 327 325 348 319 326 318 330 331 327 325
233 239 244 248 255 264 271 270 270 263 272 281 286 295 300 303 310 316 325 290 231 255 261 251 293 301 330 352 357 359 351 5 352 351 329 323 334 306 303 308 324 315 312 316
235 246 248 249 252 257 260 268 272 264 261 271 275 280 293 305 306 305 317 306 299 266 266 254 266 277 288 311 318 0 337 196 303 358 331 334 325 327 315 310 310 309 309 307
242 251 248 248 257 263 265 268 269 259 258 263 269 271 273 283 292 308 315 289 279 274 254 246 249 263 262 273 283 294 315 350 328 336 324 324 322 315 316 314 309 304 293 297
243 243 251 249 246 254 261 267 272 275 265 258 270 272 274 278 295 310 311 337 267 279 268 265 264 268 254 235 251 354 341 326 326 319 317 311 316 317 311 312 316 318 313 302
249 253 248 239 243 250 260 273 275 278 273 266 261 291 265 292 312 308 291 251 261 267 268 268 269 273 246 243 75 332 317 318 316 310 321 329 307 304 301 310 312 317 328 319
251 253 251 240 243 250 258 265 269 270 272 274 272 281 277 354 283 288 285 258 262 274 286 281 277 287 330 302 333 312 317 308 305 304 313 325 317 294 297 295 301 304 312 312
253 250 250 244 248 250 257 264 267 270 270 268 273 266 229 224 268 277 284 281 276 284 282 283 284 288 293 300 294 304 302 304 300 286 295 309 308 303 295 293 297 300 307 308
250 250 252 249 251 249 258 266 269 270 270 276 259 248 264 271 280 280 273 276 284 283 289 288 289 283 278 284 298 300 302 298 292 289 284 294 295 296 296 296 297 302 307 310
247 245 251 253 255 263 266 267 266 264 265 262 257 264 274 281 275 284 291 295 291 289 295 290 288 284 282 287 291 294 293 288 291 293 292 285 285 288 292 294 296 300 303 306
248 248 250 254 256 257 264 265 273 289 254 253 282 290 279 276 275 273 275 276 275 275 281 283 282 280 281 285 288 285 290 284 288 283 282 290 285 279 284 292 294 295 296 298
251 256 258 261 263 262 262 268 277 277 288 263 267 265 263 263 269 272 273 271 269 265 269 271 275 273 275 279 282 286 286 285 292 286 276 281 289 287 284 288 291 293 296 298
250 254 258 259 263 264 264 267 268 264 269 263 259 264 260 263 264 268 268 267 265 264 262 265 269 274 275 275 278 282 284 284 283 284 286 289 290 289 288 288 290 292 295 299
247 251 256 259 260 255 262 275 267 265 287 285 281 274 272 271 267 267 268 269 270 272 270 269 270 270 271 274 277 278 280 282 284 285 288 293 292 292 292 292 294 296 297 299
253 254 255 261 259 257 272 269 267 266 275 273 267 269 276 279 274 271 270 271 274 273 274 271 268 268 268 270 272 275 278 281 284 288 289 287 288 293 294 294 295 296 301 303
249 251 253 256 255 257 264 265 265 265 269 272 270 270 271 276 271 261 271 274 274 276 276 275 275 273 274 273 273 275 278 281 284 286 286 286 288 291 291 294 294 296 299 298
248 248 251 252 252 255 258 260 263 267 268 269 271 270 268 265 263 274 279 278 277 275 274 272 273 275 276 278 279 279 280 282 286 286 287 283 286 286 287 289 292 297 297 298
256 255 254 256 258 259 259 259 260 261 262 264 266 268 267 267 266 266 269 273 273 278 275 266 269 272 275 276 278 280 284 288 285 289 283 279 279 286 290 287 294 296 296 297
247 250 255 259 260 261 262 263 263 263 264 263 262 262 263 264 266 267 268 259 256 266 270 274 273 271 269 277 282 287 279 279 279 289 279 284 285 281 283 288 289 291 294 297
248 251 252 254 257 258 261 261 263 265 266 265 263 264 264 262 257 259 248 247 257 266 271 273 274 274 275 273 269 277 277 280 279 282 274 272 278 284 291 292 295 299 300 298
251 254 255 255 257 260 261 262 261 259 262 265 264 260 258 257 256 256 256 256 259 260 272 261 257 255 266 273 274 275 280 283 277 284 279 280 284 287 291 296 299 300 297 295
255 258 259 259 259 259 259 260 261 262 261 259 261 254 251 253 246 247 247 256 248 245 248 239 239 251 264 267 264 264 268 278 281 279 280 285 289 294 296 296 294 294 298 299
252 257 259 264 267 264 263 263 263 264 261 257 257 252 246 250 242 235 228 244 250 235 235 237 258 260 267 269 271 271 273 274 276 279 281 284 291 295 293 295 297 297 300 303
258 260 264 267 265 265 263 262 264 263 255 250 246 245 244 253 250 236 236 237 227 231 281 282 277 286 286 282 278 277 274 272 276 279 289 294 293 290 293 296 301 304 306 309
253 246 262 262 277 278 273 272 270 265 253 243 234 230 235 239 238 240 240 230 226 209 236 252 262 282 286 285 282 279 278 279 288 294 288 289 296 300 303 304 306 306 305 306
239 240 252 288 294 279 262 282 291 260 245 236 231 232 223 221 213 212 216 235 251 250 244 241 246 280 269 277 275 276 279 283 285 286 293 298 300 302 305 307 305 305 307 309
245 236 226 297 265 242 251 278 50 120 166 163 94 173 181 179 190 204 202 206 215 230 233 241 248 268 264 272 270 268 277 285 290 291 293 297 300 303 305 305 308 310 310 310
Height
5887 5891 5892 5894 5896 5897 5896 5896 5894 5894 5891 5892 5891 5887 5885 5883 5882 5883 5885 5883 5879 5880 5885 5883 5884 5884 5879 5874 5873 5874 5872 5871 5871 5869 5868 5868 5865 5866 5864 5863 5861 5860 5859 5858
5883 5885 5887 5889 5892 5893 5891 5889 5888 5887 5889 5889 5887 5879 5881 5879 5880 5877 5876 5870 5871 5876 5879 5880 5881 5882 5879 5876 5873 5871 5869 5869 5871 5870 5868 5866 5863 5864 5862 5860 5859 5858 5858 5856
5878 5880 5882 5882 5888 5885 5880 5881 5883 5883 5884 5884 5885 5886 5880 5878 5881 5882 5875 5872 5863 5872 5872 5875 5879 5879 5878 5874 5872 5868 5867 5867 5867 5868 5867 5863 5862 5860 5859 5856 5855 5857 5856 5853
5872 5876 5873 5880 5878 5876 5875 5875 5877 5877 5877 5877 5878 5877 5877 5879 5877 5875 5869 5867 5866 5870 5868 5865 5871 5871 5872 5870 5869 5865 5863 5862 5865 5865 5863 5861 5860 5858 5856 5855 5852 5852 5852 5851
5863 5866 5866 5872 5870 5867 5866 5869 5871 5872 5871 5871 5871 5871 5875 5871 5875 5874 5869 5865 5867 5867 5866 5868 5865 5863 5864 5859 5858 5857 5860 5862 5861 5859 5859 5858 5857 5855 5854 5853 5849 5849 5848 5847
5854 5855 5856 5864 5863 5861 5861 5862 5866 5868 5866 5862 5864 5863 5866 5863 5864 5867 5868 5867 5866 5864 5862 5861 5860 5858 5850 5849 5853 5857 5858 5858 5858 5858 5854 5853 5852 5852 5851 5849 5847 5846 5845 5843
5845 5845 5847 5855 5854 5853 5855 5859 5858 5859 5858 5858 5856 5857 5859 5856 5860 5865 5865 5862 5863 5860 5856 5856 5856 5855 5850 5852 5854 5856 5856 5855 5855 5854 5853 5851 5849 5848 5847 5845 5844 5842 5840 5839
5834 5836 5838 5844 5844 5847 5848 5847 5851 5851 5849 5849 5850 5848 5852 5852 5855 5858 5856 5857 5858 5856 5855 5855 5854 5852 5852 5851 5853 5851 5852 5852 5851 5851 5850 5848 5846 5845 5843 5840 5840 5839 5836 5835
5827 5830 5828 5833 5834 5838 5840 5843 5845 5844 5841 5842 5840 5844 5847 5844 5848 5850 5851 5852 5851 5851 5852 5849 5849 5849 5847 5847 5846 5847 5848 5847 5846 5845 5844 5843 5842 5840 5838 5837 5835 5833 5831 5829
5818 5817 5822 5824 5829 5830 5833 5832 5833 5833 5831 5835 5832 5835 5839 5839 5843 5844 5845 5844 5846 5845 5842 5843 5844 5845 5843 5842 5841 5842 5842 5841 5841 5840 5838 5837 5835 5834 5833 5831 5829 5827 5824 5821
5808 5810 5814 5817 5822 5823 5824 5825 5830 5824 5825 5826 5827 5830 5830 5835 5839 5839 5840 5841 5841 5840 5839 5840 5839 5839 5838 5837 5837 5837 5836 5835 5834 5833 5831 5830 5828 5827 5825 5824 5822 5820 5817 5815
5801 5804 5808 5809 5812 5817 5819 5818 5817 5816 5819 5821 5825 5828 5827 5828 5830 5832 5833 5834 5834 5834 5834 5834 5833 5833 5831 5830 5830 5830 5830 5829 5827 5824 5824 5823 5821 5819 5818 5816 5814 5811 5809 5806
5793 5794 5796 5802 5804 5808 5811 5812 5810 5808 5813 5814 5816 5819 5820 5821 5822 5824 5825 5826 5826 5826 5826 5825 5824 5823 5822 5823 5823 5823 5822 5821 5819 5818 5817 5816 5813 5811 5809 5807 5804 5802 5799 5796
5785 5787 5789 5792 5794 5797 5800 5803 5803 5803 5805 5808 5808 5809 5811 5811 5814 5815 5816 5817 5816 5815 5816 5816 5814 5814 5815 5814 5814 5814 5813 5812 5811 5811 5809 5806 5803 5802 5800 5798 5795 5793 5790 5787
5777 5779 5781 5785 5786 5788 5790 5792 5794 5795 5796 5798 5800 5800 5800 5801 5802 5802 5803 5804 5803 5804 5804 5804 5805 5806 5806 5806 5805 5804 5803 5803 5801 5801 5800 5798 5795 5793 5790 5788 5786 5784 5780 5776
5767 5769 5771 5771 5775 5777 5776 5777 5778 5783 5785 5786 5788 5789 5790 5791 5790 5790 5792 5793 5794 5793 5793 5794 5794 5793 5793 5794 5794 5794 5793 5792 5792 5791 5789 5788 5786 5784 5781 5778 5775 5773 5769 5765
5753 5757 5760 5760 5760 5763 5764 5765 5768 5769 5773 5775 5777 5779 5780 5781 5781 5780 5781 5782 5781 5782 5783 5782 5782 5783 5782 5782 5783 5783 5782 5782 5782 5782 5780 5778 5777 5775 5772 5768 5765 5761 5758 5754
5743 5743 5743 5746 5747 5748 5751 5753 5755 5758 5761 5763 5764 5765 5767 5768 5770 5769 5770 5770 5771 5771 5770 5771 5772 5772 5772 5771 5771 5771 5772 5772 5770 5768 5766 5766 5765 5763 5761 5758 5754 5749 5745 5743
5730 5731 5733 5734 5735 5735 5737 5739 5742 5743 5747 5751 5752 5753 5754 5755 5754 5756 5758 5760 5760 5761 5762 5762 5762 5762 5762 5761 5761 5762 5762 5761 5758 5757 5757 5756 5754 5751 5747 5746 5744 5741 5738 5735
5721 5722 5723 5723 5723 5725 5725 5727 5730 5730 5731 5735 5738 5740 5742 5744 5745 5746 5748 5750 5751 5752 5752 5753 5754 5752 5751 5752 5754 5754 5751 5750 5749 5747 5746 5745 5743 5740 5736 5734 5733 5731 5729 5725
5713 5713 5713 5714 5714 5715 5715 5717 5719 5721 5721 5722 5725 5728 5730 5731 5732 5734 5736 5739 5739 5741 5743 5742 5742 5743 5743 5744 5744 5744 5742 5741 5738 5736 5737 5734 5732 5731 5728 5727 5724 5721 5717 5714
5705 5705 5705 5705 5706 5706 5706 5707 5708 5709 5711 5712 5715 5718 5720 5720 5722 5723 5726 5729 5729 5730 5732 5734 5735 5736 5736 5736 5736 5735 5733 5732 5731 5730 5728 5726 5724 5722 5721 5719 5715 5711 5708 5703
5697 5698 5697 5697 5696 5697 5697 5697 5698 5698 5700 5702 5704 5708 5709 5710 5712 5714 5716 5722 5723 5723 5726 5727 5729 5728 5727 5726 5726 5725 5725 5724 5724 5722 5720 5718 5716 5714 5712 5709 5706 5701 5697 5694
5689 5689 5689 5689 5687 5687 5687 5687 5686 5686 5686 5689 5693 5696 5700 5702 5706 5708 5710 5716 5716 5717 5719 5720 5721 5720 5719 5719 5719 5718 5718 5716 5715 5714 5713 5711 5708 5704 5703 5700 5697 5692 5687 5683
5682 5683 5684 5683 5682 5680 5678 5676 5675 5674 5675 5677 5681 5685 5690 5694 5698 5700 5704 5708 5709 5710 5712 5713 5713 5714 5714 5713 5712 5711 5711 5710 5709 5708 5705 5702 5700 5698 5694 5691 5687 5683 5679 5675
5679 5680 5680 5679 5678 5676 5674 5671 5669 5666 5665 5668 5672 5675 5680 5685 5689 5691 5695 5701 5704 5706 5706 5707 5707 5708 5708 5707 5706 5706 5705 5703 5702 5700 5698 5695 5692 5689 5685 5682 5678 5674 5670 5666
5678 5677 5677 5677 5676 5676 5675 5673 5671 5668 5667 5667 5666 5666 5674 5681 5686 5689 5692 5694 5693 5698 5701 5701 5702 5703 5701 5701 5700 5698 5698 5697 5695 5693 5690 5688 5685 5681 5678 5673 5668 5664 5660 5656